sat.trackr.live / text

‹ back to catalog

STARLINK-34125

NORAD 63901 · 2025-095M

PAYLOAD ACTIVE UNKNOWN

§ Identity

Operator
Country
US
Launch date
2025-05-10
Launch site
AFETR
Launch vehicle
Mass (kg)
RCS (m²)

Purposes: comms

External: N2YO · Heavens-Above · Gunter

§ Orbital elements

Epoch: 2026-05-25T03:58:12.279360Z

Period
94.27 min
Inclination
43.0006°
Eccentricity
0.0000780
Mean motion
15.27607516 rev/d
Perigee alt
482.4 km
Apogee alt
483.5 km
Semi-major
6,861.1 km
B*
1.0842e-3
RAAN
104.3319°
Arg perigee
251.7303°
Mean anomaly
108.3464°
Rev number
5,947

§ Raw data

STARLINK-341251 63901U 25095M   26145.16541990  .00029717  00000+0  10842-2 0  99952 63901  43.0006 104.3319 0000780 251.7303 108.3464 15.27607516 59472

JSON: /api/v1/satellites/63901 · /tle

For live sub-satellite position, see the globe view (requires WebGL).

§ Visibility from observer

Set your observer location to see the next 7 days of passes ≥ 10°. The values pass through the URL so the page stays shareable.

No JS? Fill the form by hand. The geolocation button needs JavaScript.